Location: Monroe
(41.9160°N, 83.3980°W)
Time: 22:48:05
(UTC-05:00)

ISS - Visible Passes

Search period start: 24 January 2015 00:00
Search period end: 03 February 2015 00:00
Orbit: 402 x 410 km, 51.6° (Epoch: 24 January)

Date Brightness Start Highest point End Pass type
(mag) Time Alt. Az. Time Alt. Az. Time Alt. Az.
24 Jan -3.2 06:34:21 28° NW 06:35:56 74° NNE 06:39:15 10° ESE visible
25 Jan -1.9 05:44:49 37° ENE 05:44:49 37° ENE 05:47:18 10° ESE visible
25 Jan -1.8 07:17:45 10° WNW 07:20:32 24° SW 07:23:15 10° S visible
26 Jan -2.9 06:28:03 36° W 06:28:51 45° SW 06:32:01 10° SSE visible
27 Jan -1.5 05:38:38 29° SE 05:38:38 29° SE 05:40:24 10° SE visible
27 Jan -0.9 07:12:45 10° WSW 07:13:11 10° SW 07:13:27 10° SW visible
28 Jan -1.5 06:21:59 18° SW 06:21:59 18° SW 06:23:56 10° S visible
29 Jan -0.3 05:32:43 11° SSE 05:32:43 11° SSE 05:32:51 10° SSE visible
